Powrót do katalogu

STARLINK-5697

AktywnyŁącznośćVLEO
NORAD 55589·PAYLOAD·🇺🇸 United States

Wystrzelony Feb 12, 2023 z Cape Canaveral Space Force Station

Loading…

Następne Przeloty (najbliższe 24 godziny)

TLE

ŚwieżeSource: CelesTrak SupGP

Epoka: Sep 14, 2026, 14:00 UTC

1 55589C 23020W   26257.58381944 -.00013616  00000+0 -49337-3 0  2577
2 55589  43.0047  18.4419 0002098 273.8986  10.6499 15.27570125    16

Śledź STARLINK-5697 w czasie rzeczywistym z AllMySat

Download on the App Store